[ hide orbit diagram ]
For accurate long-term ephemerides, please instead use our Horizons system.This orbit viewer was implemented using two-body methods, and hence should not be used for determining accurate long-term trajectories (over several years or decades) or planetary encounter circumstances.
Orbital Elements at Epoch 2459000.5 (2020-May-31.0) TDB
Reference: JPL 23 (heliocentric ecliptic J2000)
Element | Value | Uncertainty (1-sigma) | Units |
e | .2157527614505648 | 1.1674e-07 | |
a | 2.55340251493064 | 1.4164e-08 | au |
q | 2.002498871239537 | 3.0614e-07 | au |
i | 7.46482456826343 | 4.0668e-06 | deg |
node | 42.81987704352944 | 4.9361e-05 | deg |
peri | 82.50854532765437 | 5.0576e-05 | deg |
M | 11.11226680309197 | 1.0411e-05 | deg |
tp | 2458954.497915755842 (2020-Apr-14.99791576) | 4.2943e-05 | TDB |
period | 1490.312518710311 4.08 | 1.24e-05 3.395e-08 | d yr |
n | .2415600724548281 | 2.0099e-09 | deg/d |
Q | 3.104306158621742 | 1.722e-08 | au |
|
| | Orbit Determination Parameters
Additional Information
|
[ show covariance matrix ]
Physical Parameter Table
Parameter |
Symbol |
Value |
Units |
Sigma |
Reference |
Notes |
absolute magnitude |
H |
14.23 |
|
n/a |
E2021B10 |
|
diameter |
diameter |
5.161 |
km |
0.227 |
urn:nasa:pds:neowise_diameters_albedos::2.0[mainbelt] (http://adsabs.harvard.edu/abs/2011ApJ...741...68M) |
|
geometric albedo |
albedo |
0.241 |
|
0.060 |
urn:nasa:pds:neowise_diameters_albedos::2.0[mainbelt] (http://adsabs.harvard.edu/abs/2011ApJ...741...68M) |
|
|
14586 (1998 RN70) Discovered 1998-Sep-14 by LINEAR at Socorro |
Reference: 20000418/Numbers.arc | Last Updated: 2004-04-19 |
|
[ show close-approach data ]
|